Regional Weather Roundup
Issued by NWS Sioux Falls, SD

Home | Current Version | Previous Version | Graphics & Text | Print | Product List | Glossary On
Versions: 1 2 3 4 5 6 7 8 9 10 11 12 13 14 15 16 17 18 19 20 21 22 23 24 25 26 27 28 29 30 31 32 33 34 35 36 37 38 39 40 41 42 43 44 45 46 47 48 49 50
000
ASUS43 KFSD 212010
RWRFSD

WEATHER ROUNDUP FOR SE SOUTH DAKOTA/SW MINNESOTA/NW IOWA
NATIONAL WEATHER SERVICE SIOUX FALLS SD
300 PM CDT MON JUL 21 2014

NOTE: "FAIR" INDICATES FEW OR NO CLOUDS BELOW 12,000 FEET WITH NO
SIGNIFICANT WEATHER AND OR OBSTRUCTIONS TO VISIBILITY.


SDZ038>040-050-052>070-212100-
SOUTHEAST SOUTH DAKOTA

CITY           SKY/WX    TMP DP  RH WIND       PRES   REMARKS
CHAMBERLAIN    SUNNY     98  72  42 S6        29.74F HX 106
HURON          CLOUDY    88  77  69 SE13G23   29.73F HX 100
MADISON        MOCLDY    82  81  94 S13G21    29.85R HX  95
MITCHELL       PTSUNNY   87  77  72 SE13G21   29.76F HX  99
SIOUX FALLS    PTSUNNY   84  75  74 S15       29.83S
WINNER         FAIR     108  52  15 W15G21    29.76F HX 105
YANKTON        PTSUNNY   90  79  70 SE9G16    29.79F HX 105
$$

MNZ071-072-080-081-089-090-097-098-212100-
SOUTHWEST MINNESOTA

CITY           SKY/WX    TMP DP  RH WIND       PRES   REMARKS
FAIRMONT       CLOUDY    84  72  65 S16       29.86F
JACKSON        CLOUDY    82  70  65 SE16      29.88S
LUVERNE        CLOUDY    82  73  74 S10       29.85F
MARSHALL       PTSUNNY   88  73  62 S16G22    29.82  HX  96
MONTEVIDEO     PTSUNNY   88  75  66 S10G17    29.83R HX  97
PIPESTONE      PTSUNNY   82  73  74 S16       29.85F
REDWOOD FALLS  PTSUNNY   90  76  63 S16       29.82S HX 101
TRACY          PTSUNNY   86  75  70 S10       29.85R HX  95
WINDOM         PTSUNNY   84  72  65 SE14G23   29.86S
WORTHINGTON    CLOUDY    81  73  78 S13G21    29.89R
$$

IAZ001>003-012>014-020>022-031-032-NEZ013-014-SDZ071-212100-
NORTHWEST IOWA

CITY           SKY/WX    TMP DP  RH WIND       PRES   REMARKS
CHEROKEE       CLOUDY    83  76  79 S9        29.85F
DENISON        PTSUNNY   86  77  74 S12G18    29.85S HX  97
ESTHERVILLE    CLOUDY    81  73  76 S17       29.87S
LE MARS        PTSUNNY   86  77  74 S10G17    29.83S HX  97
ORANGE CITY    PTSUNNY   86  73  66 S13       29.85S
SHELDON        CLOUDY    82  75  78 S14G22    29.84F
SIOUX CITY     PTSUNNY   89  78  70 S12       29.81F HX 103
SPENCER        CLOUDY    83  74  74 S15       29.87S
STORM LAKE     CLOUDY    84  77  79 S14       29.88S
$$

ABBREVIATIONS USED IN REMARKS
   TC - TEMPERATURE IN CELSIUS
  WCI - WIND CHILL INDEX
   HX - HEAT INDEX
  VSB - VISIBILITY



USA.gov is the U.S. government's official web portal to all federal, state and local government web resources and services.